Starlink 11619

operational
NORAD ID: 63272 Int'l Des: 2025-053 Owner: SPXS Country: US Constellation: starlink
LEOCIRCULAR

Über Starlink 11619

Beschreibung wird geladen...

Live-Position

3D-Globus wird geladen...

Nächste Überflüge

Höhenverlauf

Altitude vs Time

uPlot chart will show altitude changes over time

Zweizeiliger Elementsatz

1 63272U 25053H 25259.62816556 .00212612 00000-0 16200-2 0 9992
2 63272 43.0020 81.4581 0004547 279.4848 80.5505 15.70808489 30297
Epoch: 16. Sept. 2025 • Age: 40 hours

Aktueller Status

Höhe 357.1 km
Geschwindigkeit 7.70 km/s
Subsatellitenpunkt 26.19°N, 112.2°E
Startdatum 15. März 2025
Alter 0.5 years
Typ internet

Technische Details

Klassifizierung Payload
Masse 960.00 kg
Trockenmasse 910.00 kg
Gesamtmasse 960.00 kg
Länge 0.30 m
Durchmesser 4.10 m
Spannweite 29.00 m
Form Box + pan
Hersteller SPXS
Bus-Typ Starlink V2MD
Phasenstatus In Orbit
Besitzer/Staat SPXS/US

Große Konstellationen

Loading constellations...